Theta_e
342 348 350 352 352 352 352 352 351 350 350 348 347 345 344 344 344 345 344 343 344 340 340 338 337 339 338 338 337 337 337 337 336 335 334 333 332 332 332 333 334 330 334
344 348 348 350 352 352 351 351 351 350 349 349 346 345 343 342 340 342 342 343 343 340 339 339 337 336 337 337 337 337 336 335 335 335 337 336 334 332 331 331 333 329 330
343 347 349 348 350 351 351 350 350 350 349 347 347 345 343 343 342 339 341 343 343 341 338 336 337 334 334 334 335 335 334 333 333 333 333 330 330 331 332 330 330 330 329
344 347 348 345 349 350 350 349 349 349 349 348 348 346 345 342 342 339 341 341 340 338 337 338 335 334 333 331 330 332 332 332 331 332 327 327 328 331 331 330 330 330 329
344 346 347 344 348 349 349 349 349 348 348 349 349 347 345 343 342 340 339 341 339 339 337 335 334 334 334 333 331 330 331 330 329 329 328 329 328 330 330 329 329 329 329
342 345 344 345 348 348 348 348 348 348 348 348 347 347 345 345 343 341 340 340 339 339 336 334 333 334 334 333 332 330 330 329 329 327 328 328 329 330 330 330 329 329 329
342 345 347 345 346 347 347 347 347 347 347 347 346 346 345 344 343 341 339 338 338 339 335 333 333 334 334 333 332 330 328 327 325 327 329 329 329 330 330 330 330 330 330
341 345 347 339 341 343 345 345 346 346 346 346 345 344 344 344 342 340 339 337 337 337 335 333 332 332 332 332 332 329 326 326 322 323 327 329 330 329 328 328 329 330 332
342 343 345 346 342 336 339 340 342 343 344 344 343 342 341 341 340 338 337 337 335 334 334 332 331 330 329 329 330 327 324 322 324 323 324 329 331 328 328 329 329 330 333
341 343 343 344 344 343 342 333 336 338 339 341 339 336 335 335 335 334 333 335 336 334 332 331 329 327 327 327 326 324 323 321 324 326 327 329 331 331 332 334 334 333 333
339 340 343 342 342 341 339 335 332 332 334 334 334 330 330 338 335 333 330 332 335 333 330 328 327 327 328 327 325 322 321 325 325 327 329 328 330 330 330 331 332 333 335
335 338 340 341 341 339 335 339 339 342 342 342 342 340 339 335 335 332 328 328 330 329 329 328 326 325 322 324 325 322 326 326 326 327 329 327 330 330 330 330 331 333 336
336 338 339 339 340 338 335 339 338 341 341 341 340 339 336 336 334 334 333 331 331 323 324 323 323 322 323 324 325 326 327 326 326 328 325 325 329 332 332 331 332 334 336
334 336 337 338 337 337 336 336 336 337 337 339 337 336 336 333 332 331 330 331 330 325 323 322 322 325 325 326 326 325 326 327 327 328 324 321 328 332 334 335 334 336 336
331 335 336 337 335 335 335 336 336 335 335 338 337 337 334 332 331 330 329 328 327 324 321 320 323 323 324 325 325 325 326 327 328 328 326 319 325 330 333 334 335 335 335
331 334 335 334 334 335 334 334 334 333 334 336 336 335 334 332 331 329 328 326 324 322 320 320 323 323 323 324 324 326 326 327 328 327 327 327 323 327 330 333 334 332 333
332 332 332 333 334 333 333 332 333 333 334 336 335 335 333 331 330 328 327 325 322 321 321 323 326 325 324 324 326 326 327 327 327 327 328 327 325 320 324 328 330 333 332
330 331 333 332 333 333 332 331 331 333 334 334 335 334 332 330 329 328 326 324 322 320 322 325 325 324 324 324 324 325 325 326 326 327 328 327 326 325 320 320 324 328 331
329 331 329 330 330 331 331 331 330 331 332 332 331 329 328 328 328 327 325 323 321 320 323 325 325 324 322 323 323 324 324 324 325 325 325 325 323 324 321 314 315 318 325
331 331 330 330 331 331 330 329 330 329 329 330 326 325 326 326 326 326 324 322 321 320 323 325 325 325 324 323 320 321 323 325 326 321 320 321 321 320 319 319 320 316 317
328 329 328 328 328 329 328 327 325 324 326 327 325 325 326 326 326 326 325 322 321 320 323 325 325 324 324 323 321 321 317 318 317 317 318 317 314 315 316 317 317 315 312
321 327 328 329 328 328 328 327 327 327 326 327 327 325 326 326 326 326 326 324 323 320 324 324 324 323 324 322 318 318 313 313 315 316 315 312 309 307 307 308 308 306 306
314 312 326 329 329 328 329 328 327 327 326 325 325 325 325 326 328 326 327 326 326 325 323 324 324 323 321 322 322 318 314 312 313 312 310 307 304 303 302 302 301 301 302
308 307 310 315 328 328 328 326 324 323 321 322 325 326 324 327 326 327 327 327 326 327 325 326 326 325 324 320 320 322 324 322 315 307 306 303 302 300 299 298 297 298 299
303 305 307 311 312 318 328 327 325 322 324 325 325 325 326 327 328 328 328 328 327 327 327 327 327 326 325 323 321 322 322 323 323 319 307 300 298 297 296 296 295 295 296
302 303 304 306 305 308 312 317 324 325 324 324 323 322 325 326 326 327 328 328 327 327 326 326 326 324 323 323 323 324 322 319 319 317 312 301 300 294 294 294 293 293 293
Wind_Speed
12 18 19 19 19 18 17 17 18 19 20 19 18 16 16 17 14 15 14 13 14 16 16 14 16 16 15 14 15 16 15 16 13 14 14 15 15 14 13 12 9 12 12
16 19 19 19 19 17 18 18 19 20 20 19 18 18 16 17 15 14 12 14 12 15 17 15 15 14 14 15 16 16 17 16 16 14 13 14 14 12 12 10 11 10 11
17 19 20 18 18 17 18 18 19 19 19 20 19 18 17 17 16 14 13 14 14 17 17 15 14 13 12 13 14 14 14 14 13 11 5 9 11 11 11 10 9 9 10
18 18 20 16 17 17 18 18 19 19 19 20 19 19 19 16 17 15 15 13 14 14 17 14 13 12 13 14 13 13 13 13 11 5 6 8 10 10 10 9 8 9 8
17 18 17 17 18 17 17 17 18 17 18 19 19 19 19 18 16 15 14 12 15 15 15 14 12 12 14 14 13 13 12 11 8 6 7 6 7 9 9 7 7 6 5
15 16 18 18 20 18 15 16 16 15 16 16 18 19 18 17 16 15 14 12 13 14 15 13 11 12 14 13 12 12 11 9 6 7 7 5 7 8 7 6 5 3 3
13 14 18 17 19 18 16 15 15 15 15 16 16 17 17 17 16 15 14 13 11 13 15 13 12 11 11 12 11 10 9 5 6 6 6 5 8 6 6 5 4 3 3
12 11 17 13 15 16 16 14 13 13 15 14 15 16 17 18 17 17 15 13 11 13 14 13 11 11 10 10 10 9 8 3 4 6 5 4 6 4 3 2 1 1 2
11 12 14 16 14 11 13 12 12 11 12 14 14 15 16 16 16 16 15 14 13 12 13 12 10 10 10 9 8 7 7 1 5 5 5 3 5 3 2 1 2 3 3
12 14 14 14 15 14 13 10 10 10 9 10 13 12 11 11 12 13 11 12 13 12 12 11 10 10 10 8 8 7 6 5 5 5 4 4 4 1 1 3 5 3 1
9 12 15 12 14 13 13 11 10 9 9 11 13 11 13 11 12 14 10 13 12 12 11 11 11 9 8 7 6 7 7 3 4 3 3 2 3 1 1 2 4 4 6
12 12 11 13 13 13 10 13 14 12 11 14 14 17 11 9 9 10 8 11 12 10 10 10 10 8 8 6 5 6 3 4 3 3 4 2 4 1 0 1 2 1 7
13 10 12 12 14 14 11 8 7 7 7 9 16 14 9 10 8 8 7 8 7 8 7 8 7 6 6 4 4 4 3 4 4 3 5 3 5 4 1 1 3 2 10
15 16 13 12 11 14 9 8 8 7 7 8 9 14 10 8 10 8 7 8 8 7 7 7 5 5 6 5 5 5 5 3 3 3 6 2 4 8 7 6 3 11 11
13 15 17 15 12 13 14 9 7 9 7 11 11 12 11 10 9 9 8 8 8 7 7 6 6 6 6 6 5 5 5 5 5 3 4 4 5 8 10 8 8 8 9
10 15 12 15 14 14 13 14 8 8 8 11 11 12 13 10 9 9 9 8 8 7 6 6 6 6 6 6 6 5 6 5 6 5 3 5 9 11 10 13 11 3 6
14 13 15 16 15 15 16 13 8 8 9 11 11 14 14 12 11 11 8 8 8 7 8 7 6 5 6 6 6 6 5 6 5 6 5 4 7 11 13 14 12 12 5
13 12 15 13 14 17 16 12 8 8 10 11 11 11 15 14 13 11 9 9 9 7 7 7 6 6 6 6 6 5 5 5 6 6 5 4 4 4 9 12 12 14 12
12 15 14 15 15 15 13 11 11 9 10 8 9 9 13 13 13 10 9 9 10 8 8 7 7 7 7 7 4 4 4 5 5 5 6 5 5 5 5 9 14 13 11
12 13 15 13 15 15 11 10 8 8 7 8 7 7 10 10 13 11 9 10 10 9 9 8 9 8 7 6 5 4 3 3 4 5 6 4 4 5 4 3 3 7 12
9 13 16 16 14 11 8 9 9 9 9 9 8 10 12 12 13 13 9 10 11 11 11 11 10 10 7 6 6 4 2 2 3 3 4 4 5 4 4 3 3 3 4
8 12 16 16 16 14 9 9 6 8 8 9 9 9 12 13 14 13 12 11 12 10 12 12 12 9 8 7 7 7 5 2 2 4 4 4 5 3 3 4 4 4 4
3 3 12 16 15 14 14 9 6 5 2 6 9 9 11 13 13 14 14 12 12 11 10 11 12 13 9 8 8 6 4 6 6 3 3 3 4 3 3 3 4 4 4
4 1 4 5 14 16 15 13 17 12 12 11 11 10 10 14 16 15 15 14 13 9 11 11 11 12 9 8 4 5 6 1 5 4 2 3 3 3 3 2 3 4 4
3 1 2 3 6 5 16 16 14 14 9 7 8 12 13 13 14 15 15 14 13 10 11 12 12 11 9 8 7 5 9 6 5 4 4 3 1 2 3 2 2 2 3
3 2 4 6 7 5 7 2 4 11 14 11 10 8 9 10 10 15 15 13 13 12 11 11 11 12 11 11 8 9 6 6 8 5 3 3 3 3 2 3 3 2 2
Wind_Direction
172 158 160 157 154 150 148 145 140 140 141 142 143 143 138 128 124 116 109 111 117 115 110 106 116 108 104 101 95 88 91 84 91 98 90 94 91 92 83 67 95 79 81
167 159 157 158 155 155 150 147 142 141 143 144 144 144 143 133 128 122 124 118 118 137 121 110 103 99 93 95 90 92 92 86 83 82 94 88 87 84 82 73 66 81 76
168 157 160 159 157 155 150 150 143 143 147 145 148 147 146 139 135 131 123 127 129 124 121 124 115 115 112 104 99 96 93 88 87 82 79 95 93 94 86 88 85 84 87
170 158 164 157 156 154 151 154 148 150 152 153 152 152 149 147 140 143 133 142 119 131 126 121 119 124 121 111 110 106 100 96 89 120 106 100 100 94 98 98 78 71 79
174 170 157 156 157 156 157 157 152 154 157 158 156 157 154 151 146 143 141 134 138 140 132 121 123 130 125 118 111 107 106 100 104 127 105 108 110 101 95 95 111 99 26
177 174 147 158 158 159 159 156 155 161 162 161 164 160 159 151 144 142 141 139 148 141 136 128 131 135 131 124 116 112 112 113 185 111 103 98 91 102 106 110 107 107 114
172 179 162 157 156 159 162 160 162 168 167 168 168 163 158 148 144 142 142 143 153 146 135 134 131 128 135 130 124 118 118 128 119 113 109 99 92 105 105 108 104 95 104
164 175 167 157 152 158 164 167 165 171 170 172 172 165 160 150 148 145 146 147 153 144 145 141 139 132 135 138 131 124 124 143 145 110 108 96 25 95 111 120 157 261 91
165 171 174 176 160 154 158 166 171 176 172 166 170 165 160 153 151 148 148 149 153 154 150 146 146 139 135 135 136 134 133 197 111 102 117 133 10 121 142 164 257 260 281
170 175 182 180 175 178 175 161 167 171 182 167 156 159 152 144 140 136 143 152 151 152 152 152 152 147 137 130 132 138 140 189 109 115 117 82 336 30 125 34 50 48 340
177 179 180 179 180 183 183 173 162 154 165 152 143 143 149 163 153 152 163 152 145 145 153 155 153 142 128 120 128 135 184 152 138 116 110 60 320 33 36 4 8 359 317
188 185 178 168 185 182 186 174 183 169 180 178 168 164 165 156 161 172 140 124 129 141 151 155 146 139 188 166 150 174 194 162 163 140 96 341 329 317 305 279 309 328 120
200 190 174 168 183 183 189 184 185 175 166 171 170 163 165 166 157 164 151 153 156 170 171 167 160 185 182 183 170 173 153 172 159 156 106 353 344 33 88 215 242 232 144
208 201 175 169 187 189 183 184 186 175 161 166 173 169 169 170 168 170 176 184 182 188 180 183 180 175 181 186 181 175 187 181 173 164 110 355 360 40 44 42 142 143 141
219 205 194 169 179 191 185 182 181 179 181 179 177 181 181 176 172 171 173 178 185 185 188 189 186 184 187 190 190 194 184 177 165 165 115 32 20 56 41 52 73 136 143
212 205 193 180 178 188 192 181 176 179 183 188 185 187 188 183 177 176 174 178 187 191 189 194 192 190 193 193 197 192 190 185 179 132 125 102 58 45 53 51 42 78 152
223 214 188 190 182 184 190 186 178 188 189 193 192 187 191 189 182 183 181 178 184 189 194 194 195 198 195 193 192 190 192 185 176 164 166 150 117 62 49 50 37 46 76
245 208 193 177 185 187 184 180 179 204 193 196 196 188 193 191 186 189 187 183 179 184 193 198 196 199 202 191 193 196 203 193 196 178 160 155 141 126 73 55 50 47 39
240 202 197 184 179 187 178 174 184 210 198 192 197 187 190 192 191 190 195 185 176 185 195 197 199 206 198 199 190 185 191 193 181 170 161 158 132 138 124 82 60 40 38
247 206 191 191 184 187 183 178 176 187 207 201 193 187 181 194 193 195 192 188 181 189 196 201 204 203 202 193 179 171 159 176 164 159 164 158 144 138 141 147 115 64 42
247 203 191 186 184 180 187 178 169 184 195 205 197 188 191 197 195 194 194 192 193 195 200 201 203 201 201 196 164 145 108 155 169 163 160 149 144 139 131 114 94 77 62
262 206 197 194 186 180 189 182 181 189 197 205 200 190 195 199 197 195 196 196 195 199 204 202 203 204 210 191 196 199 180 185 185 178 168 158 146 122 97 77 92 82 66
232 359 216 196 192 187 191 181 173 175 176 209 202 202 202 197 198 198 199 199 197 204 206 208 205 210 206 200 230 211 192 226 144 155 162 134 134 112 95 86 79 78 78
279 2 316 335 198 193 201 195 200 200 197 201 199 202 197 199 203 205 207 206 207 204 212 211 213 212 220 204 215 248 261 81 202 170 157 140 133 133 125 105 84 71 73
325 335 332 17 52 318 188 195 199 208 205 185 205 207 203 202 207 206 207 203 207 206 213 215 212 208 210 218 210 194 225 236 248 215 174 165 122 138 116 109 95 94 80
37 10 52 83 53 60 15 345 229 231 208 194 184 194 204 202 202 208 208 207 208 209 209 210 213 210 209 214 216 222 205 198 214 194 157 141 172 158 141 126 132 126 105